Location: Aufkirchen
(47.9603°N, 11.3653°E)
Time: 13:45:19
(UTC+01:00)

Transit 2A Rocket - Pass Details

Date: 09 December 2020
Orbit: 592 x 910 km, 66.7° (Epoch: 21 January)

Event Time Altitude Azimuth Distance (km) Brightness Sun altitude
Rises 22:22:50 0° 173° (S) 3,494 - -57.5°
Reaches altitude 10° 22:25:50 10° 160° (SSE) 2,530 - -57.8°
Maximum altitude 22:30:22 24° 110° (ESE) 1,704 - -58.4°
Drops below altitude 10° 22:34:42 10° 59° (ENE) 2,406 - -58.9°
Sets 22:37:28 0° 45° (NE) 3,286 - -59.2°
